PE2KMV-10 Weather Reports


Display with metric or nautical units.
time (UTC)temp
F
wind
direction
speed
MPH
gust
MPH
rain 1hr
in
rain 24hr
in
rain mn
in
humidity
%
barometer
mb
20221004091517 54 0.0 0.0 0.00 0.01 0.00 100 1026.1
20221004090540 54 0.0 0.0 0.00 0.01 0.00 100 1026.1
20221004085516 53 0.0 0.0 0.00 0.01 0.00 100 1026.0
20221004084519 53 0.0 0.0 0.00 0.01 0.00 100 1026.1
20221004083517 52 0.0 0.0 0.00 0.01 0.00 100 1026.0
20221004082521 52 0.0 0.0 0.00 0.01 0.00 100 1025.9
20221004081538 51 0.0 0.0 0.00 0.01 0.00 100 1025.8
20221004080520 51 0.0 0.0 0.00 0.01 0.00 100 1025.7
20221004075605 50 0.0 0.0 0.00 0.01 0.00 100 1025.9
20221004074519 50 0.0 0.0 0.00 0.01 0.00 86 1025.9
20221004073520 50 0.0 0.0 0.00 0.01 0.00 100 1025.9
20221004072517 50 0.0 0.0 0.00 0.01 0.00 58 1026.0
20221004071521 49 0.0 0.0 0.00 0.01 0.00 31 1025.9
20221004070517 49 0.0 0.0 0.00 0.01 0.00 100 1026.0
20221004065520 48 0.0 0.0 0.00 0.01 0.00 100 1025.9
20221004064520 48 0.0 0.0 0.00 0.01 0.00 100 1025.8
20221004063541 48 0.0 0.0 0.00 0.01 0.00 100 1025.9
20221004062517 48 0.0 0.0 0.00 0.01 0.00 100 1025.8
20221004061520 48 0.0 0.0 0.00 0.01 0.00 100 1025.8
20221004060519 48 0.0 0.0 0.00 0.01 0.00 100 1025.9
20221004055537 48 0.0 0.0 0.00 0.01 0.00 100 1025.8
20221004054518 47 0.0 0.0 0.00 0.01 0.00 100 1025.8
20221004053517 48 0.0 0.0 0.00 0.01 0.00 100 1025.8
20221004052523 48 0.0 0.0 0.00 0.01 0.00 100 1025.8
20221004051516 48 0.0 0.0 0.00 0.01 0.00 100 1026.0
20221004050517 48 0.0 0.0 0.00 0.01 0.00 100 1026.0
20221004045520 48 0.0 0.0 0.00 0.01 0.00 100 1026.0
20221004043539 48 0.0 0.0 0.00 0.01 0.00 100 1026.1
20221004042521 48 0.0 0.0 0.00 0.01 0.00 100 1026.2
20221004041520 47 0.0 0.0 0.00 0.01 0.00 100 1026.3
20221004040556 48 0.0 0.0 0.00 0.01 0.00 100 1026.3
20221004035517 49 0.0 0.0 0.00 0.01 0.00 100 1026.3
20221004034521 49 0.0 0.0 0.00 0.01 0.00 100 1026.5
20221004033517 48 0.0 0.0 0.00 0.01 0.00 100 1026.8
20221004032539 48 0.0 0.0 0.00 0.01 0.00 100 1026.8
20221004031519 49 0.0 0.0 0.00 0.01 0.00 100 1026.8
20221004030540 49 0.0 0.0 0.00 0.01 0.00 100 1026.9
20221004025604 49 0.0 0.0 0.00 0.01 0.00 100 1027.0
20221004024521 50 0.0 0.0 0.00 0.01 0.00 100 1027.1
20221004023521 50 0.0 0.0 0.00 0.01 0.00 100 1027.2
20221004022518 50 0.0 0.0 0.00 0.01 0.00 100 1027.4
20221004021521 50 0.0 0.0 0.00 0.01 0.00 100 1027.6
20221004020520 50 0.0 0.0 0.00 0.01 0.00 100 1027.7
20221004015520 50 0.0 0.0 0.00 0.01 0.00 100 1027.7
20221004014522 50 0.0 0.0 0.00 0.01 0.00 100 1027.8
20221004013520 51 0.0 0.0 0.00 0.01 0.00 100 1027.9
20221004012630 51 0.0 0.0 0.00 0.01 0.00 100 1027.9
20221004011519 51 0.0 0.0 0.00 0.01 0.00 100 1027.8
20221004010606 51 0.0 0.0 0.00 0.01 0.00 100 1027.9
20221004005516 51 0.0 0.0 0.00 0.01 0.00 100 1028.0
20221004004519 51 0.0 0.0 0.00 0.01 0.00 100 1028.0
20221004003520 51 0.0 0.0 0.00 0.01 0.00 100 1028.0
20221004002610 51 0.0 0.0 0.00 0.01 0.00 100 1028.0
20221004001523 51 0.0 0.0 0.00 0.01 0.00 100 1028.1
20221004000521 51 0.0 0.0 0.00 0.01 0.00 100 1028.1
20221003235517 51 0.0 0.0 0.00 0.01 0.00 100 1028.2
20221003234516 51 0.0 0.0 0.00 0.01 0.00 100 1028.4
20221003233519 51 0.0 0.0 0.00 0.01 0.00 100 1028.6
20221003232521 51 0.0 0.0 0.00 0.01 0.00 100 1028.6
20221003231520 51 0.0 0.0 0.00 0.01 0.00 100 1028.6
20221003230519 52 0.0 0.0 0.00 0.01 0.00 100 1028.7
20221003225547 52 0.0 0.0 0.00 0.01 0.00 100 1028.7
20221003224520 52 0.0 0.0 0.00 0.01 0.00 100 1028.8
20221003223519 52 0.0 0.0 0.00 0.01 0.00 100 1028.9
20221003222614 52 0.0 0.0 0.00 0.01 0.00 100 1028.9
20221003221521 52 0.0 0.0 0.00 0.01 0.00 100 1029.1
20221003220520 52 0.0 0.0 0.00 0.01 0.00 100 1029.2
20221003215518 53 0.0 0.0 0.00 0.01 0.01 100 1029.1
20221003214519 53 0.0 0.0 0.00 0.01 0.01 100 1029.2
20221003213519 53 0.0 0.0 0.00 0.01 0.01 58 1029.2
20221003212615 53 0.0 0.0 0.00 0.01 0.01 100 1029.3
20221003211525 53 0.0 0.0 0.00 0.01 0.01 100 1029.2
20221003210519 53 0.0 0.0 0.00 0.01 0.01 100 1029.2
20221003205607 53 0.0 0.0 0.00 0.01 0.01 4 1029.2
20221003204539 54 0.0 0.0 0.00 0.01 0.01 8 1029.3
20221003203520 54 0.0 0.0 0.00 0.01 0.01 1 1029.3
20221003202517 53 0.0 0.0 0.00 0.01 0.01 7 1029.5
20221003201519 54 0.0 0.0 0.00 0.01 0.01 10 1029.6
20221003200539 54 0.0 0.0 0.00 0.01 0.01 4 1029.7
20221003195518 54 0.0 0.0 0.00 0.01 0.01 9 1029.7
20221003194520 55 0.0 0.0 0.00 0.01 0.01 9 1029.8
20221003193520 55 0.0 0.0 0.00 0.01 0.01 12 1029.8
20221003192517 55 0.0 0.0 0.00 0.01 0.01 12 1029.7
20221003191520 55 0.0 0.0 0.00 0.01 0.01 19 1029.9
20221003190519 56 0.0 0.0 0.00 0.01 0.01 19 1029.7
20221003185518 56 0.0 0.0 0.00 0.01 0.01 18 1029.7
20221003184540 56 0.0 0.0 0.00 0.01 0.01 23 1029.9
20221003183517 56 0.0 0.0 0.00 0.01 0.01 24 1030.0
20221003182611 57 0.0 0.0 0.00 0.01 0.01 30 1029.8
20221003181520 57 0.0 0.0 0.00 0.01 0.01 28 1029.9
20221003180520 57 0.0 0.0 0.00 0.01 0.01 29 1030.0
20221003175615 58 0.0 0.0 0.00 0.01 0.01 34 1030.0
20221003174558 58 0.0 0.0 0.00 0.01 0.01 38 1030.0
20221003173521 58 0.0 0.0 0.00 0.01 0.01 45 1030.1
20221003172607 58 0.0 0.0 0.00 0.01 0.01 48 1030.1
20221003171540 59 0.0 0.0 0.00 0.01 0.01 49 1030.1
20221003170520 60 0.0 0.0 0.00 0.01 0.01 56 1030.2
20221003165537 61 0.0 0.0 0.00 0.01 0.01 100 1030.1
20221003164519 61 0.0 0.0 0.00 0.01 0.01 100 1030.1
20221003163539 61 0.0 0.0 0.00 0.01 0.01 100 1030.3
20221003162539 62 0.0 0.0 0.00 0.01 0.01 100 1030.4
20221003161539 62 0.0 0.0 0.00 0.01 0.01 100 1030.6
20221003160540 62 0.0 0.0 0.00 0.01 0.01 100 1030.7
20221003155611 63 0.0 0.0 0.00 0.01 0.01 100 1030.6
20221003154537 63 0.0 0.0 0.00 0.01 0.01 100 1030.8
20221003153608 63 0.0 0.0 0.00 0.01 0.01 100 1030.9
20221003152517 63 0.0 0.0 0.00 0.01 0.01 100 1031.0
20221003151519 63 0.0 0.0 0.00 0.01 0.01 100 1031.1
20221003150540 64 0.0 0.0 0.00 0.01 0.01 100 1031.2
20221003145522 64 0.0 0.0 0.00 0.01 0.01 100 1031.2
20221003144540 64 0.0 0.0 0.00 0.01 0.01 100 1031.4
20221003143540 64 0.0 0.0 0.00 0.01 0.01 100 1031.4
20221003142605 63 0.0 0.0 0.00 0.01 0.01 100 1031.4
20221003141544 62 0.0 0.0 0.00 0.01 0.01 72 1031.5
20221003140542 63 0.0 0.0 0.00 0.01 0.01 69 1031.6
20221003135611 64 0.0 0.0 0.00 0.01 0.01 100 1031.6
20221003134540 63 0.0 0.0 0.00 0.01 0.01 69 1031.6
20221003133517 64 0.0 0.0 0.00 0.01 0.01 70 1031.7
20221003132623 65 0.0 0.0 0.00 0.01 0.01 68 1031.8
20221003131521 64 0.0 0.0 0.00 0.01 0.01 68 1031.9
20221003130521 64 0.0 0.0 0.00 0.01 0.01 68 1032.0
20221003125536 63 0.0 0.0 0.00 0.01 0.01 67 1032.1
20221003124539 62 0.0 0.0 0.00 0.01 0.01 66 1032.1
20221003123519 61 0.0 0.0 0.00 0.01 0.01 65 1032.2
20221003122540 61 0.0 0.0 0.00 0.01 0.01 67 1032.3
20221003121520 61 0.0 0.0 0.00 0.01 0.01 66 1032.3
20221003120605 61 0.0 0.0 0.00 0.01 0.01 64 1032.3
20221003115613 61 0.0 0.0 0.00 0.01 0.01 58 1032.4
20221003114541 60 0.0 0.0 0.00 0.01 0.01 54 1032.4
20221003113521 60 0.0 0.0 0.00 0.01 0.01 54 1032.5
20221003112519 60 0.0 0.0 0.00 0.01 0.01 50 1032.6
20221003111521 60 0.0 0.0 0.00 0.01 0.01 36 1032.7
20221003110603 59 0.0 0.0 0.00 0.01 0.01 30 1032.8
20221003105517 58 0.0 0.0 0.00 0.01 0.01 24 1032.7
20221003104517 57 0.0 0.0 0.00 0.01 0.01 21 1032.7
20221003103522 57 0.0 0.0 0.00 0.01 0.01 6 1032.6
20221003102519 56 0.0 0.0 0.01 0.01 0.01 13 1032.6
20221003101539 56 0.0 0.0 0.01 0.01 0.01 100 1032.6
20221003100521 55 0.0 0.0 0.01 0.01 0.01 100 1032.8
20221003095537 55 0.0 0.0 0.01 0.01 0.01 100 1032.7
20221003094521 55 0.0 0.0 0.01 0.01 0.01 100 1032.7
20221003093540 55 0.0 0.0 0.01 0.01 0.01 100 1032.8
20221003092609 54 0.0 0.0 0.00 0.00 0.00 100 1032.7